CCA7510 ZSPD-RKSI

Flight info

Callsign CCA7510
Flight time N/A
Altitude 35000
Route LAM84D LAMEN A593 SADLI Y590 ELGEP Y722 OLMEN OLMEN2H
Aircraft A320/M-SDE3FGHIRWY/LB1

Departure

Time 2026-05-05 13:54
Airport Shanghai Pudong International Airport (ZSPD)

Arrival

Time N/A
Airport Incheon International Airport (RKSI)
Time Latitude Longitude Altitude Speed Heading
2026-05-05 13:31 31.15952 121.80487 14 ft 0 kts 251°
2026-05-05 13:40 31.15951 121.80485 12 ft 1 kts 251°
2026-05-05 13:40 31.15951 121.80484 12 ft 0 kts 251°
2026-05-05 13:40 31.15953 121.80493 12 ft 2 kts 256°
2026-05-05 13:40 31.15957 121.80511 12 ft 2 kts 256°
2026-05-05 13:41 31.15961 121.80530 13 ft 2 kts 256°
2026-05-05 13:41 31.15966 121.80549 13 ft 2 kts 282°
2026-05-05 13:41 31.15960 121.80563 13 ft 0 kts 342°
2026-05-05 13:44 31.15965 121.80562 14 ft 4 kts 346°
2026-05-05 13:44 31.16005 121.80593 12 ft 17 kts 32°
2026-05-05 13:44 31.16100 121.80650 12 ft 0 kts 26°
2026-05-05 13:44 31.16132 121.80717 12 ft 14 kts 77°
2026-05-05 13:45 31.16052 121.80782 12 ft 23 kts 158°
2026-05-05 13:45 31.15923 121.80831 12 ft 0 kts 161°
2026-05-05 13:45 31.15915 121.80834 13 ft 1 kts 161°
2026-05-05 13:45 31.15906 121.80838 12 ft 0 kts 161°
2026-05-05 13:46 31.15886 121.80845 12 ft 4 kts 162°
2026-05-05 13:46 31.15865 121.80853 12 ft 0 kts 161°
2026-05-05 13:47 31.15855 121.80857 12 ft 8 kts 161°
2026-05-05 13:47 31.15820 121.80938 11 ft 6 kts 72°
2026-05-05 13:47 31.15820 121.80939 11 ft 0 kts 72°
2026-05-05 13:48 31.15824 121.80956 13 ft 5 kts 73°
2026-05-05 13:48 31.15828 121.80970 12 ft 0 kts 73°
2026-05-05 13:50 31.15828 121.80973 12 ft 3 kts 73°
2026-05-05 13:50 31.15843 121.81029 13 ft 7 kts 73°
2026-05-05 13:50 31.15850 121.81057 11 ft 2 kts 73°
2026-05-05 13:51 31.15851 121.81059 11 ft 0 kts 73°
2026-05-05 13:52 31.15852 121.81063 11 ft 1 kts 73°
2026-05-05 13:52 31.15856 121.81079 13 ft 3 kts 73°
2026-05-05 13:52 31.15863 121.81107 11 ft 4 kts 73°
2026-05-05 13:52 31.15868 121.81145 11 ft 5 kts 96°
2026-05-05 13:53 31.15855 121.81183 11 ft 4 kts 127°
2026-05-05 13:53 31.15830 121.81199 12 ft 0 kts 159°
2026-05-05 13:54 31.15824 121.81201 11 ft 6 kts 160°
2026-05-05 13:54 31.15457 121.81340 11 ft 112 kts 162°
2026-05-05 13:54 31.14443 121.81723 224 ft 176 kts 162°
2026-05-05 13:54 31.13237 121.82183 1104 ft 194 kts 164°
2026-05-05 13:55 31.11856 121.82702 1862 ft 224 kts 164°
2026-05-05 13:55 31.10316 121.83304 2607 ft 242 kts 162°
2026-05-05 13:55 31.08789 121.84234 2927 ft 252 kts 146°
2026-05-05 13:55 31.07372 121.85437 2998 ft 252 kts 145°
2026-05-05 13:56 31.05962 121.86647 3082 ft 256 kts 145°
2026-05-05 13:56 31.04474 121.87915 4093 ft 266 kts 145°
2026-05-05 13:56 31.02971 121.89196 4710 ft 267 kts 145°
2026-05-05 13:56 31.01477 121.90470 4921 ft 267 kts 143°
2026-05-05 13:57 31.00048 121.91858 4982 ft 267 kts 140°
2026-05-05 13:57 30.98668 121.93305 4987 ft 267 kts 138°
2026-05-05 13:57 30.97305 121.94768 4987 ft 266 kts 137°
2026-05-05 13:57 30.95943 121.96236 4988 ft 266 kts 138°
2026-05-05 13:58 30.94624 121.97753 4995 ft 268 kts 129°
2026-05-05 13:58 30.93792 121.99653 4994 ft 269 kts 106°
2026-05-05 13:58 30.93678 122.01859 5319 ft 285 kts 82°
2026-05-05 13:58 30.94237 122.04092 6688 ft 283 kts 72°
2026-05-05 13:59 30.95451 122.08476 9414 ft 289 kts 72°
2026-05-05 13:59 30.96071 122.10742 10486 ft 302 kts 72°
2026-05-05 14:00 30.97462 122.15818 11674 ft 354 kts 72°
2026-05-05 14:00 30.97971 122.17667 11993 ft 371 kts 72°
2026-05-05 14:00 30.99076 122.21669 12532 ft 404 kts 72°
2026-05-05 14:00 30.99809 122.24907 13013 ft 421 kts 81°
2026-05-05 14:01 31.00012 122.28355 13696 ft 431 kts 90°
2026-05-05 14:01 31.00006 122.31863 14453 ft 436 kts 90°
2026-05-05 14:01 30.99998 122.35421 15173 ft 442 kts 90°
2026-05-05 14:01 30.99993 122.39021 15898 ft 446 kts 90°
2026-05-05 14:02 30.99991 122.42651 16648 ft 450 kts 89°
2026-05-05 14:02 30.99996 122.46316 17338 ft 455 kts 89°
2026-05-05 14:02 31.00009 122.50025 18048 ft 459 kts 89°
2026-05-05 14:02 31.00021 122.53714 18668 ft 464 kts 89°
2026-05-05 14:03 31.00028 122.57491 19236 ft 468 kts 89°
2026-05-05 14:03 31.00031 122.61293 19808 ft 471 kts 89°
2026-05-05 14:03 31.00033 122.65138 20336 ft 476 kts 89°
2026-05-05 14:03 31.00035 122.69007 20872 ft 480 kts 89°
2026-05-05 14:04 31.00037 122.72905 21390 ft 483 kts 90°
2026-05-05 14:04 31.00035 122.76836 21895 ft 486 kts 90°
2026-05-05 14:04 31.00031 122.80799 22383 ft 490 kts 90°
2026-05-05 14:04 31.00026 122.84783 22866 ft 493 kts 90°
2026-05-05 14:05 31.00022 122.87437 23180 ft 496 kts 90°
2026-05-05 14:05 31.00020 122.91468 23633 ft 499 kts 89°
2026-05-05 14:05 31.00525 122.96861 24114 ft 503 kts 77°
2026-05-05 14:05 31.01502 123.00789 24453 ft 506 kts 69°
2026-05-05 14:06 31.02976 123.04521 24777 ft 509 kts 59°
2026-05-05 14:06 31.04215 123.06837 25037 ft 509 kts 53°
2026-05-05 14:06 31.06986 123.11315 25646 ft 509 kts 53°
2026-05-05 14:06 31.08357 123.13541 25961 ft 510 kts 53°
2026-05-05 14:07 31.10418 123.16913 26441 ft 511 kts 53°
2026-05-05 14:07 31.12484 123.20309 26883 ft 513 kts 53°
2026-05-05 14:07 31.14551 123.23710 27357 ft 515 kts 53°
2026-05-05 14:07 31.16628 123.27126 27849 ft 516 kts 53°
2026-05-05 14:08 31.18713 123.30549 28355 ft 517 kts 53°